Date String (YYYY-MM-DD hh:mm:ss) UTC,Instrument flags,absolute air pressure of the measurement (hPa),sample flow rate (lpm),inlet stack bypass flow (lpm),air temperature of the measurement (°C),ambient temperature measured by the external sensor (°C),aerosol sample conditioner tube jacket temperature (°C),OPC LED temperature (°C),internal box temperature (°C),relative humidity of the measurement (%),span deviation,mass concentration of particles derived from Lorenz-Mie calculation of OPC scattering (μg/m³),mass concentration of particles derived from Lorenz-Mie calculation of OPC scattering (μg/m³),mass concentration of particles derived from Lorenz-Mie calculation of OPC scattering (μg/m³)
DateTimeUTC,F1_M11,P_M11,Q1_M11,Q2_M11,T1_M11,T2_M11,T3_M11,T4_M11,T5_M11,U1_M11,ZSPAN_M11,X0_M11,X2_M11,X1_M11
2023-09-23 06:00:00,SystemResetWarning,0827.8,4.99,000.00,028.3,026.9,000.0,036.7,029.9,31.0,0000.0,0017.13,0006.19,0004.72
2023-09-23 06:01:00,SystemResetWarning,0827.8,5.01,000.00,028.3,026.9,000.0,036.7,030.0,30.7,0000.0,0018.07,0006.20,0004.74
2023-09-23 06:02:00,SystemResetWarning,0827.8,5.01,000.00,028.3,027.0,000.0,036.7,030.0,30.8,0000.0,0018.66,0006.18,0004.74
2023-09-23 06:03:00,SystemResetWarning,0827.9,4.99,000.00,028.4,027.0,000.0,036.7,030.0,31.1,0000.0,0018.79,0006.16,0004.73
2023-09-23 06:04:00,SystemResetWarning,0828.1,4.99,000.00,028.4,027.1,000.0,036.7,030.0,31.3,0000.0,0018.40,0006.13,0004.72
2023-09-23 06:05:00,SystemResetWarning,0828.1,5.00,000.00,028.4,027.1,000.0,036.7,030.1,31.3,0000.0,0018.42,0006.05,0004.71
2023-09-23 06:06:00,SystemResetWarning,0828.1,5.01,000.00,028.4,027.1,000.0,036.7,030.1,31.3,0000.0,0018.33,0006.00,0004.70
2023-09-23 06:07:00,SystemResetWarning,0828.0,5.00,000.00,028.4,027.2,000.0,036.7,030.1,31.3,0000.0,0019.01,0005.97,0004.70
2023-09-23 06:08:00,SystemResetWarning,0828.1,4.99,000.00,028.5,027.2,000.0,036.7,030.1,31.3,0000.0,0019.04,0005.90,0004.70
2023-09-23 06:09:00,SystemResetWarning,0828.1,4.99,000.00,028.5,027.2,000.0,036.7,030.1,31.3,0000.0,0019.31,0005.91,0004.70
2023-09-23 06:10:00,SystemResetWarning,0828.1,5.00,000.00,028.5,027.2,000.0,036.8,030.1,31.4,-000.3,0019.40,0006.00,0004.70
2023-09-23 06:11:00,SystemResetWarning,0828.2,5.02,000.00,028.5,027.3,000.0,036.8,030.2,31.4,-000.3,0019.66,0006.06,0004.71
2023-09-23 06:12:00,SystemResetWarning,0828.2,5.00,000.00,028.5,027.3,000.0,036.8,030.2,31.4,0000.0,0018.81,0006.07,0004.71
2023-09-23 06:13:00,SystemResetWarning,0828.3,4.98,000.00,028.5,027.3,000.0,036.8,030.2,31.4,0000.0,0018.33,0006.09,0004.72
2023-09-23 06:14:00,SystemResetWarning,0828.4,4.99,000.00,028.6,027.3,000.0,036.8,030.2,31.3,0000.0,0018.33,0006.08,0004.71
2023-09-23 06:15:00,SystemResetWarning,0828.3,5.00,000.00,028.6,027.3,000.0,036.8,030.2,31.3,0000.0,0018.26,0006.08,0004.71
2023-09-23 06:16:00,SystemResetWarning,0828.3,5.00,000.00,028.6,027.3,000.0,036.8,030.3,31.3,0000.0,0018.34,0006.08,0004.70
2023-09-23 06:17:00,SystemResetWarning,0828.3,5.01,000.00,028.6,027.3,000.0,036.9,030.3,31.3,0000.0,0018.25,0006.06,0004.68
2023-09-23 06:18:00,SystemResetWarning,0828.3,5.01,000.00,028.6,027.4,000.0,036.9,030.3,31.3,0000.0,0017.83,0006.04,0004.67
2023-09-23 06:19:00,SystemResetWarning,0828.4,5.00,000.00,028.6,027.4,000.0,036.9,030.3,31.2,0000.0,0017.24,0006.06,0004.66
2023-09-23 06:20:00,SystemResetWarning,0828.4,5.00,000.00,028.7,027.4,000.0,036.9,030.3,31.1,0000.0,0017.07,0006.02,0004.64
2023-09-23 06:21:00,SystemResetWarning,0828.4,5.00,000.00,028.7,027.4,000.0,036.9,030.3,31.1,0000.0,0018.64,0005.96,0004.65
2023-09-23 06:22:00,SystemResetWarning,0828.4,4.99,000.00,028.7,027.4,000.0,036.9,030.3,31.0,0000.0,0018.48,0005.93,0004.67
2023-09-23 06:23:00,SystemResetWarning,0828.4,4.99,000.00,028.7,027.4,000.0,037.0,030.4,30.9,0000.0,0018.63,0005.94,0004.66
2023-09-23 06:24:00,SystemResetWarning,0828.4,5.01,000.00,028.7,027.5,000.0,037.0,030.4,30.7,0000.0,0019.49,0005.95,0004.65
2023-09-23 06:25:00,SystemResetWarning,0828.5,5.01,000.00,028.7,027.5,000.0,037.0,030.4,30.6,0000.0,0021.15,0005.89,0004.67
2023-09-23 06:26:00,SystemResetWarning,0828.5,5.01,000.00,028.8,027.5,000.0,037.0,030.5,30.5,0000.0,0020.72,0005.89,0004.68
2023-09-23 06:27:00,SystemResetWarning,0828.6,4.99,000.00,028.8,027.5,000.0,037.0,030.5,30.2,0000.0,0020.67,0005.90,0004.71
2023-09-23 06:28:00,SystemResetWarning,0828.6,4.98,000.00,028.8,027.5,000.0,037.0,030.5,29.7,0000.0,0020.71,0005.95,0004.74
2023-09-23 06:29:00,SystemResetWarning,0828.6,5.00,000.00,028.8,027.6,000.0,037.1,030.5,29.3,0000.0,0020.41,0005.99,0004.76
2023-09-23 06:30:00,SystemResetWarning,0828.6,5.00,000.00,028.8,027.6,000.0,037.1,030.5,29.0,-000.5,0020.26,0006.01,0004.79
2023-09-23 06:31:00,SystemResetWarning,0828.6,5.00,000.00,028.9,027.6,000.0,037.1,030.5,29.1,-000.6,0020.31,0006.11,0004.80
2023-09-23 06:32:00,SystemResetWarning,0828.7,5.00,000.00,028.9,027.6,000.0,037.1,030.6,29.2,-000.3,0019.05,0006.19,0004.82
2023-09-23 06:33:00,SystemResetWarning,0828.6,5.01,000.00,028.9,027.6,000.0,037.1,030.6,29.4,0000.0,0018.44,0006.21,0004.81
2023-09-23 06:34:00,SystemResetWarning,0828.6,5.00,000.00,028.9,027.6,000.0,037.1,030.6,29.4,-000.8,0018.76,0006.19,0004.82
2023-09-23 06:35:00,SystemResetWarning,0828.6,5.00,000.00,028.9,027.6,000.0,037.2,030.6,29.2,-001.0,0018.27,0006.19,0004.83
2023-09-23 06:36:00,SystemResetWarning,0828.6,4.99,000.00,028.9,027.6,000.0,037.2,030.6,29.0,-001.3,0016.19,0006.27,0004.84
2023-09-23 06:37:00,SystemResetWarning,0828.7,5.00,000.00,028.9,027.6,000.0,037.2,030.6,28.6,-001.5,0016.55,0006.33,0004.85
2023-09-23 06:38:00,SystemResetWarning,0828.7,5.00,000.00,029.0,027.7,000.0,037.2,030.6,28.0,-001.4,0016.57,0006.39,0004.84
2023-09-23 06:39:00,SystemResetWarning,0828.7,5.00,000.00,029.0,027.7,000.0,037.2,030.6,27.6,-000.9,0016.73,0006.45,0004.83
2023-09-23 06:40:00,SystemResetWarning,0828.7,5.00,000.00,029.0,027.7,000.0,037.2,030.7,27.2,-000.5,0018.00,0006.50,0004.82
2023-09-23 06:41:00,SystemResetWarning,0828.7,5.00,000.00,029.0,027.7,000.0,037.3,030.7,26.7,-000.5,0018.41,0006.51,0004.81
2023-09-23 06:42:00,SystemResetWarning,0828.7,5.00,000.00,029.0,027.7,000.0,037.3,030.7,26.5,-000.9,0017.60,0006.50,0004.81
2023-09-23 06:43:00,SystemResetWarning,0828.7,5.00,000.00,029.0,027.7,000.0,037.3,030.7,26.3,-001.8,0017.32,0006.44,0004.80
2023-09-23 06:44:00,SystemResetWarning,0828.7,5.01,000.00,029.0,027.7,000.0,037.3,030.7,25.9,-001.6,0016.56,0006.37,0004.78
2023-09-23 06:45:00,SystemResetWarning,0828.7,4.99,000.00,029.0,026.5,000.0,037.3,030.5,25.5,0000.0,0016.60,0006.34,0004.77
2023-09-23 06:46:00,SystemResetWarning,0828.7,5.01,000.00,028.9,024.8,000.0,037.2,030.1,25.3,0000.0,0016.57,0006.36,0004.77
2023-09-23 06:47:00,SystemResetWarning,0828.7,5.00,000.00,028.7,024.4,000.0,037.1,029.8,25.0,0000.0,0016.05,0006.33,0004.74
2023-09-23 06:48:00,SystemResetWarning,0828.8,5.01,000.00,028.6,024.5,000.0,037.1,029.7,24.7,0000.0,0016.20,0006.28,0004.72
2023-09-23 06:49:00,SystemResetWarning,0828.8,5.00,000.00,028.5,024.9,000.0,037.1,029.8,24.7,0000.0,0017.35,0006.18,0004.70
2023-09-23 06:50:00,SystemResetWarning,0828.8,5.00,000.00,028.5,025.3,000.0,037.0,029.8,24.6,0000.0,0017.22,0006.06,0004.69
2023-09-23 06:51:00,SystemResetWarning,0828.8,5.00,000.00,028.4,025.6,000.0,037.0,029.8,24.4,0000.0,0016.09,0005.98,0004.69
2023-09-23 06:52:00,SystemResetWarning,0828.8,5.01,000.00,028.4,025.9,000.0,037.0,029.9,24.3,0000.0,0016.07,0005.92,0004.68
2023-09-23 06:53:00,SystemResetWarning,0828.8,4.99,000.00,028.4,026.2,000.0,036.9,029.9,24.2,0000.0,0016.29,0005.90,0004.67
2023-09-23 06:54:00,SystemResetWarning,0828.8,4.99,000.00,028.4,026.4,000.0,036.9,030.0,24.2,0000.0,0016.65,0005.95,0004.67
2023-09-23 06:55:00,SystemResetWarning,0828.9,5.00,000.00,028.4,026.5,000.0,036.9,030.0,24.1,0000.0,0017.35,0005.98,0004.67
2023-09-23 06:56:00,SystemResetWarning,0828.8,4.99,000.00,028.4,026.7,000.0,036.9,030.0,24.1,0000.0,0017.88,0006.01,0004.67
2023-09-23 06:57:00,SystemResetWarning,0828.9,5.00,000.00,028.4,026.8,000.0,036.9,030.0,24.0,0000.0,0018.19,0005.98,0004.67
2023-09-23 06:58:00,SystemResetWarning,0828.9,5.01,000.00,028.5,026.9,000.0,036.9,030.0,24.1,0000.0,0018.58,0005.96,0004.66
2023-09-23 06:59:00,SystemResetWarning,0829.0,5.01,000.00,028.5,026.9,000.0,036.9,030.1,24.1,0000.0,0018.13,0005.96,0004.67
